Language selection

My Weather Profile Weather Topics  | 

Atlantic - Newfoundland: Past 24 Hour Conditions

 

Banquereau - 44139

08:00 PM ADT 15 September 2019Buoy position: 44.27N 57.08W
Disclaimer

This table is a summary of hourly weather conditions for the past 24 hours.
Please note that these observations might not always be representative of weather conditions over their associated marine area.

Date / Time
(ADT)
Wind(knots) Wave height(m) Wave period(s) Pressure(kPa) Air tempC) Water tempC)
15 September 2019
20:00 WSW 13 gust 19 2.1 9.0 101.7 17 16
19:00 WSW 16 gust 17 2.0 9.0 101.7 17 16
18:00 WSW 12 gust 16 1.9 10.0 101.8 17 17
17:00 W 16 gust 19 1.7 10.0 101.8 18 17
16:00 WSW 16 gust 19 1.6 10.0 101.8 18 17
15:00 WSW 13 gust 16 1.4 10.0 101.9 17 17
14:00 WSW 13 gust 16 1.5 9.0 102.0 17 17
13:00 WSW 13 gust 16 1.5 9.0 102.0 17 17
12:00 W 13 gust 16 1.5 8.0 102.1 17 17
11:00 W 16 gust 17 1.4 9.0 102.2 17 17
10:00 W 16 gust 19 1.4 9.0 102.3 17 17
9:00 W 16 gust 17 1.4 9.0 102.3 16 17
8:00 W 13 gust 17 1.3 9.0 102.3 16 17
7:00 W 12 gust 13 1.3 10.0 102.4 15 17
6:00 WNW 10 gust 13 1.3 8.0 102.4 15 17
5:00 WNW 10 gust 12 1.3 8.0 102.4 15 17
4:00 WNW 10 gust 13 1.3 8.0 102.5 14 17
3:00 WNW 12 gust 16 1.3 8.0 102.5 14 17
2:00 N/A N/A N/A N/A N/A N/A
1:00 N/A N/A N/A N/A N/A N/A
0:00 WNW 12 gust 13 1.3 8.0 102.7 14 17
14 September 2019
23:00 NW 10 gust 13 1.3 7.0 102.8 13 17
22:00 NW 12 gust 13 1.3 9.0 102.8 14 17
21:00 NNW 10 gust 13 1.3 7.0 102.8 13 17
20:00 NNW 8 gust 12 1.3 7.0 102.8 13 17

Zoom-in to make a selection

Map of Atlantic - Newfoundland marine weather areas Banquereau - 44139 Blanc-Sablon Airport Cap Whittle Chevery Natashquan Airport Heath Point Îles de la Madeleine Airport Miscou Island Eskasoni (First Nations) Grand Étang Ingonish Beach North Mountain St.Paul Island J.A. Douglas McCurdy Sydney Airport Charlottetown Airport East Point North Cape Argentia Bonavista Burgeo Cape Race Corner Brook Daniel's Harbour Englee Ferolle Point La Scie Port aux Basques Rocky Harbour Sagona Island St. Anthony Airport St. John's Int'l Airport St. Lawrence Stephenville Airport Twillingate Winterland Branch Hill Wreckhouse Grates Cove Pool's Island Marticot Island Long Pond Cartwright Airport Mary's Harbour
Legend:
buoy Buoy
land station Land Station

Atlantic - Newfoundland Area

Another Region

What we are doing

Date modified: